Location: Unspecified
(0.0000°N, 0.0000°E)
Time: 07:07:19
(UTC+00:00)

Envisat - Pass Details

Date: 13 October 2019
Orbit: 764 x 766 km, 98.1° (Epoch: 15 October)

Event Time Altitude Azimuth Distance (km) Brightness Sun altitude
Rises 18:16:25 0° 161° (SSE) 3,230 6.1 -7.5°
Reaches altitude 10° 18:18:46 10° 157° (SSE) 2,302 5.3 -8.0°
Maximum altitude 18:23:44 58° 78° (ENE) 888 3.0 -9.3°
Drops below altitude 10° 18:28:42 10° 360° (N) 2,291 5.4 -10.5°
Sets 18:31:01 0° 356° (N) 3,214 6.2 -11.1°
